TimeEST,TemperatureF,Dew PointF,Humidity,Sea Level PressureIn,VisibilityMPH,Wind Direction,Wind SpeedMPH,Gust SpeedMPH,PrecipitationIn,Events,Conditions,WindDirDegrees,DateUTC
12:54 AM,45.0,34.0,65,29.98,10.0,NNE,15.0,18.4,N/A,,Clear,20,2013-02-16 05:54:00
1:54 AM,43.0,33.1,68,29.98,10.0,North,9.2,-,N/A,,Clear,360,2013-02-16 06:54:00
2:54 AM,42.1,32.0,67,29.96,10.0,North,11.5,-,N/A,,Clear,10,2013-02-16 07:54:00
3:54 AM,42.1,32.0,67,29.95,10.0,NNE,6.9,-,N/A,,Overcast,20,2013-02-16 08:54:00
4:54 AM,41.0,32.0,70,29.95,10.0,North,6.9,-,N/A,,Overcast,10,2013-02-16 09:54:00
5:54 AM,41.0,32.0,70,29.94,10.0,NNE,4.6,-,N/A,,Overcast,20,2013-02-16 10:54:00
6:54 AM,42.1,32.0,67,29.94,10.0,North,-9999.0,-,N/A,,Overcast,0,2013-02-16 11:54:00
7:54 AM,43.0,30.9,62,-9999,10.0,North,6.9,-,N/A,,Overcast,350,2013-02-16 12:54:00
8:54 AM,43.0,32.0,65,-9999,10.0,North,10.4,-,N/A,,Overcast,350,2013-02-16 13:54:00
9:32 AM,42.8,32.0,66,-9999,10.0,North,13.8,20.7,N/A,,Overcast,10,2013-02-16 14:32:00
9:40 AM,42.8,33.8,70,-9999,10.0,North,16.1,20.7,N/A,,Overcast,360,2013-02-16 14:40:00
9:54 AM,42.1,32.0,67,-9999,10.0,North,10.4,21.9,N/A,,Overcast,10,2013-02-16 14:54:00
10:40 AM,41.0,33.8,76,29.93,8.0,NNE,12.7,20.7,0.00,Rain,Light Rain,20,2013-02-16 15:40:00
10:51 AM,39.2,32.0,75,29.93,10.0,North,8.1,19.6,0.00,Rain,Light Rain,10,2013-02-16 15:51:00
10:54 AM,41.0,32.0,70,29.93,10.0,North,6.9,19.6,0.00,Rain,Light Rain,10,2013-02-16 15:54:00
11:21 AM,39.2,32.0,75,29.93,10.0,North,11.5,-,0.00,Rain,Light Rain,360,2013-02-16 16:21:00
11:43 AM,39.2,33.8,81,29.93,10.0,North,8.1,-,0.00,Rain,Light Rain,360,2013-02-16 16:43:00
11:54 AM,39.9,33.1,77,29.93,10.0,North,8.1,-,0.00,Rain,Light Rain,350,2013-02-16 16:54:00
12:14 PM,39.2,33.8,81,29.93,7.0,North,9.2,-,0.00,Rain,Light Rain,10,2013-02-16 17:14:00
12:23 PM,39.2,33.8,81,29.93,8.0,NNE,8.1,-,0.00,Rain,Light Rain,20,2013-02-16 17:23:00
12:54 PM,39.0,33.1,79,29.93,10.0,North,8.1,-,0.00,,Overcast,360,2013-02-16 17:54:00
1:54 PM,39.0,33.1,79,29.87,3.0,North,4.6,-,0.02,Rain,Light Rain,360,2013-02-16 18:54:00
2:12 PM,37.4,32.0,81,-9999,3.0,North,8.1,-,0.02,Rain,Light Rain,360,2013-02-16 19:12:00
2:20 PM,37.4,32.0,81,-9999,2.5,North,5.8,-,0.02,Rain,Light Rain,10,2013-02-16 19:20:00
2:54 PM,36.0,32.0,86,-9999,1.5,North,6.9,-,0.05,Snow,Light Snow,360,2013-02-16 19:54:00
3:21 PM,35.6,32.0,87,-9999,2.0,North,5.8,-,0.02,Snow,Light Snow,350,2013-02-16 20:21:00
3:54 PM,36.0,32.0,86,-9999,2.5,North,6.9,-,0.03,Snow,Light Snow,350,2013-02-16 20:54:00
4:19 PM,37.4,32.0,81,-9999,3.0,North,6.9,-,0.01,Snow,Light Snow,360,2013-02-16 21:19:00
4:54 PM,37.0,32.0,82,-9999,5.0,NNW,8.1,-,0.01,,Overcast,330,2013-02-16 21:54:00
5:54 PM,37.0,30.9,79,29.80,4.0,North,8.1,-,0.03,Rain,Light Rain,350,2013-02-16 22:54:00
6:38 PM,35.6,30.2,81,29.80,2.5,NNW,6.9,-,0.03,Snow,Light Snow,340,2013-02-16 23:38:00
6:54 PM,36.0,30.9,82,29.80,3.0,North,9.2,-,0.04,Snow,Light Snow,350,2013-02-16 23:54:00
7:13 PM,35.6,30.2,81,29.80,2.0,North,9.2,-,0.01,Snow,Light Snow,360,2013-02-17 00:13:00
7:24 PM,35.6,30.2,81,29.80,1.8,North,9.2,-,0.02,Snow,Light Snow,350,2013-02-17 00:24:00
7:41 PM,35.6,30.2,81,29.80,2.0,North,11.5,18.4,0.03,Snow,Light Snow,360,2013-02-17 00:41:00
7:49 PM,35.6,30.2,81,29.81,1.5,North,11.5,21.9,0.03,Snow,Light Snow,360,2013-02-17 00:49:00
7:54 PM,35.1,30.0,82,29.81,1.5,North,11.5,21.9,0.03,Snow,Light Snow,360,2013-02-17 00:54:00
8:54 PM,35.1,30.0,82,29.81,1.2,North,12.7,-,0.01,Snow,Light Snow,350,2013-02-17 01:54:00
9:10 PM,35.6,28.4,75,29.80,1.5,North,20.7,25.3,0.00,Snow,Light Snow,350,2013-02-17 02:10:00
9:36 PM,35.6,28.4,75,29.81,1.2,North,12.7,26.5,0.00,Snow,Light Snow,350,2013-02-17 02:36:00
9:48 PM,35.6,28.4,75,29.81,2.5,North,17.3,25.3,0.00,Snow,Light Snow,350,2013-02-17 02:48:00
9:54 PM,35.1,28.9,78,29.81,3.0,North,18.4,25.3,0.00,Snow,Light Snow,350,2013-02-17 02:54:00
10:14 PM,35.6,28.4,75,29.80,2.0,North,12.7,24.2,N/A,Snow,Light Snow,350,2013-02-17 03:14:00
10:35 PM,35.6,28.4,75,29.80,3.0,NNW,10.4,40.3,0.00,Snow,Light Snow,340,2013-02-17 03:35:00
10:52 PM,35.6,28.4,75,29.79,8.0,NW,11.5,39.1,0.00,,Overcast,310,2013-02-17 03:52:00
10:54 PM,35.1,28.9,78,29.80,8.0,NNW,11.5,29.9,0.00,,Overcast,330,2013-02-17 03:54:00
11:54 PM,35.1,28.0,76,29.80,10.0,NNW,12.7,-,N/A,,Overcast,340,2013-02-17 04:54:00